Wind_Speed
17 18 18 17 18 18 18 18 18 18 18 18 17 17 17 18 18 18 18 18 18 19 19 19 20 20 20 20 20 20 21 21 22 22 23 24 24 25 25 25 25 25 25
18 19 20 20 20 20 20 21 20 20 20 19 19 19 19 20 20 20 20 20 20 20 21 21 21 21 21 22 22 22 23 23 24 24 25 25 25 25 26 26 26 26 26
20 21 21 22 23 23 23 23 23 22 22 21 21 21 21 21 22 22 22 22 23 22 23 23 23 23 23 24 24 24 25 26 26 26 26 27 27 27 27 28 27 27 26
21 22 23 23 24 25 25 25 25 25 24 23 23 23 23 24 24 24 24 25 25 25 25 25 25 25 26 25 26 27 27 27 27 27 28 29 29 29 29 29 28 28 28
22 23 23 24 24 25 26 27 26 26 26 26 25 25 25 25 25 26 26 26 26 25 26 26 26 26 27 27 27 28 28 28 28 29 29 29 29 30 30 30 29 29 28
24 24 24 25 25 26 27 28 28 28 28 28 27 27 27 28 27 28 28 28 27 28 27 27 27 27 28 28 29 30 30 29 29 30 30 30 30 30 29 29 29 29 29
25 25 25 26 26 26 27 28 29 29 29 30 29 29 29 30 29 29 29 29 28 29 29 28 28 28 29 29 30 30 31 30 30 30 30 30 30 30 30 29 29 29 29
26 26 26 27 28 28 28 29 29 30 30 30 30 30 30 30 31 30 30 30 30 29 29 29 29 29 29 29 29 29 29 29 30 31 32 31 31 31 31 30 30 29 29
28 27 27 28 29 30 30 30 31 31 31 31 31 31 31 30 31 31 31 31 31 31 30 30 30 30 30 30 30 30 31 31 32 32 32 32 31 31 31 30 29 29 29
29 29 28 29 30 31 31 32 32 32 32 32 31 31 31 31 32 32 32 32 31 30 30 31 31 31 32 32 32 32 32 33 33 33 32 31 30 29 30 30 30 30 29
29 29 29 29 30 30 30 31 32 32 32 32 31 31 32 32 33 33 33 33 32 31 31 32 32 32 33 34 34 33 33 33 33 32 31 30 29 29 30 30 29 29 29
29 29 29 28 28 28 29 29 29 30 31 32 32 32 32 32 32 33 34 34 34 33 32 32 32 33 34 34 33 33 33 33 32 32 30 29 28 29 29 29 30 29 29
30 30 29 28 28 28 28 28 28 29 30 30 31 33 33 32 32 33 34 33 33 33 33 33 33 34 34 34 33 33 33 32 31 30 29 28 28 29 29 29 29 29 28
30 30 30 29 29 28 29 29 29 30 30 31 31 30 31 32 33 34 34 33 33 32 32 33 34 34 34 33 33 33 33 31 30 30 29 29 29 28 28 28 28 28 28
30 30 30 30 30 30 29 29 28 28 29 30 30 30 29 30 31 32 33 33 33 32 32 33 34 35 34 33 32 32 32 31 29 29 29 29 29 28 28 27 27 28 28
30 30 31 31 31 31 31 31 30 30 29 29 30 30 30 30 30 31 32 32 32 33 33 32 32 32 33 33 32 31 31 30 30 29 29 29 29 28 28 27 27 28 28
30 31 31 31 32 32 32 31 30 30 29 30 29 29 30 29 30 30 31 31 32 32 32 32 32 31 31 31 31 31 30 30 29 29 30 30 29 28 28 28 28 28 28
31 31 30 31 31 32 32 31 30 30 29 29 29 28 29 29 29 29 30 30 30 30 31 31 31 30 30 30 30 30 30 30 29 29 29 29 28 28 28 28 28 28 28
31 31 31 31 31 31 31 31 31 30 30 29 29 28 28 29 29 29 30 29 29 29 30 30 30 30 30 30 30 30 29 29 28 28 27 27 27 27 27 26 27 27 27
31 31 31 31 30 30 30 30 30 29 29 29 28 28 28 28 28 28 29 29 29 29 29 29 29 28 28 28 28 27 27 27 27 27 27 27 26 26 26 26 26 26 27
30 29 29 29 29 29 30 30 29 28 28 28 28 28 28 27 27 27 28 28 28 28 28 28 28 28 28 27 26 25 25 25 26 26 26 26 26 25 25 25 25 25 24
29 28 29 29 29 29 29 29 28 28 28 28 28 27 27 27 27 26 26 27 27 27 27 27 27 27 26 26 25 25 25 25 26 26 26 26 25 25 25 24 23 23 23
29 29 29 29 28 28 28 28 28 28 28 28 27 27 27 26 26 26 26 26 25 25 25 25 25 25 25 25 25 25 24 24 24 25 25 24 24 24 24 24 24 23 23
28 28 28 28 27 27 27 27 27 27 27 27 26 26 26 26 25 25 25 24 23 23 24 24 24 24 24 24 24 23 23 23 23 23 23 23 24 23 23 23 24 24 24
27 27 27 26 26 26 26 26 26 26 25 25 25 24 24 24 24 24 23 23 23 23 24 24 23 23 23 23 23 23 23 23 23 23 22 22 23 23 24 24 24 24 24
25 25 26 25 25 25 25 24 24 23 23 23 23 23 23 23 23 23 23 23 23 23 23 23 22 23 23 22 22 22 22 23 23 23 23 23 23 23 24 24 24 24 25
Wind_Direction
264 265 267 269 269 267 268 269 270 272 274 276 277 281 279 280 283 284 284 281 279 278 280 280 280 281 283 284 285 286 287 288 289 290 290 290 289 289 288 287 288 287 286
266 266 267 269 269 268 268 268 269 270 272 274 277 278 279 278 280 282 283 280 279 279 279 280 280 281 282 282 283 284 286 287 289 289 290 289 290 289 288 287 287 287 286
271 271 271 271 271 269 268 267 267 269 270 272 275 276 276 278 280 280 282 279 279 278 279 279 280 280 281 282 283 284 285 287 288 289 289 289 289 289 288 288 287 286 286
275 274 274 273 271 270 268 267 267 267 268 270 273 274 275 277 278 279 280 279 279 278 279 279 279 278 280 282 283 284 285 287 288 289 289 289 288 288 287 288 287 286 286
278 277 276 273 272 271 270 268 266 267 267 268 270 272 274 276 277 278 278 278 279 279 278 277 277 277 279 281 282 282 283 285 286 287 287 288 289 288 286 285 285 285 285
279 278 277 275 273 273 271 269 269 268 267 268 269 271 273 275 276 277 277 277 277 277 276 276 274 275 279 280 282 282 283 283 284 286 286 286 288 287 286 286 285 284 285
279 278 276 275 275 275 273 272 271 269 269 269 270 272 274 275 276 275 274 275 276 276 276 275 274 276 278 280 282 283 281 282 284 285 286 286 287 286 285 285 285 284 285
280 280 278 277 276 276 275 274 271 269 270 271 271 271 274 276 277 277 276 275 275 275 275 276 277 278 279 281 282 282 281 282 284 284 285 286 285 284 284 284 283 283 283
277 279 280 278 278 277 276 274 272 270 270 271 271 272 273 275 276 277 277 276 276 275 274 275 277 278 278 281 283 282 281 282 283 284 284 286 285 284 283 282 282 284 285
277 278 280 279 278 278 276 274 272 271 270 270 271 272 272 273 275 276 278 278 277 276 276 277 277 277 278 280 281 281 281 282 282 283 284 284 284 283 282 282 283 284 285
277 278 280 280 279 278 276 276 274 271 270 269 271 271 272 272 274 275 276 277 276 276 276 277 277 277 277 278 279 280 281 281 280 280 282 282 282 281 281 281 281 282 284
275 276 278 279 279 279 278 276 275 272 272 272 271 271 272 274 274 275 276 277 275 275 275 276 278 278 278 279 279 281 281 280 279 280 281 281 282 283 283 282 282 283 284
276 277 279 280 279 278 278 277 274 272 271 272 271 270 270 272 274 275 276 276 276 275 276 277 279 279 280 281 281 282 282 279 277 278 280 281 282 283 283 283 283 282 283
279 279 280 280 279 278 279 278 277 274 273 272 272 272 272 273 275 276 276 276 276 276 276 278 278 280 282 282 282 282 281 280 277 276 278 279 280 282 281 281 281 281 281
279 278 278 277 278 278 279 279 278 275 274 275 275 275 276 277 276 275 275 276 276 276 277 277 278 279 280 280 281 280 280 279 278 275 276 278 279 279 279 279 281 283 282
277 277 277 277 278 278 278 277 278 279 279 278 279 278 279 278 276 275 275 276 276 276 276 276 277 278 279 280 280 279 279 279 280 278 277 277 278 279 278 279 281 283 283
277 276 277 277 278 279 279 279 279 281 281 279 280 279 279 278 277 277 277 276 275 274 275 276 277 277 279 278 277 278 278 278 278 278 279 278 278 278 278 279 281 283 284
278 279 278 278 278 279 279 279 281 282 281 280 280 280 280 279 279 278 278 277 276 275 275 276 276 276 276 277 277 278 278 277 277 278 279 279 280 279 279 280 281 282 283
279 280 280 280 279 279 279 279 279 280 280 279 280 279 279 280 280 280 279 278 278 277 277 277 276 276 276 276 276 278 278 277 278 279 279 280 280 280 280 280 281 281 282
279 279 279 280 281 281 280 279 279 279 281 279 279 279 281 283 282 281 279 279 278 278 277 277 276 277 276 274 274 276 277 278 279 280 279 278 279 280 280 280 281 282 283
279 279 279 280 281 281 281 280 279 280 282 281 281 282 283 284 284 283 281 280 280 279 278 278 277 277 275 273 273 275 278 279 280 279 279 279 279 280 280 281 281 282 284
277 278 278 279 281 281 280 280 279 280 281 282 282 282 281 282 283 284 282 280 279 279 279 278 276 275 274 274 274 275 276 278 278 279 279 278 278 279 279 281 284 283 283
278 278 278 279 279 280 280 279 279 278 279 280 281 282 282 282 282 281 281 281 280 279 278 276 275 275 274 274 274 275 275 276 278 279 278 277 279 280 281 281 282 284 284
278 277 278 278 279 280 280 280 278 278 278 278 280 282 283 282 282 282 282 282 281 280 280 280 278 275 276 278 277 276 276 277 278 279 278 278 279 279 279 279 280 282 282
279 278 277 277 277 278 279 279 279 279 279 281 283 284 285 284 284 283 282 283 283 283 283 282 280 278 278 278 278 277 276 277 278 278 277 277 279 279 279 278 278 279 280
278 277 276 276 276 278 279 280 280 280 280 280 282 285 285 285 284 283 283 284 283 282 282 281 278 277 277 277 277 277 277 277 276 276 276 278 280 279 279 280 280 279 279
Height
5886 5885 5885 5884 5884 5884 5884 5883 5883 5883 5882 5881 5881 5880 5879 5879 5878 5878 5877 5877 5876 5875 5875 5874 5873 5872 5871 5870 5869 5867 5866 5865 5863 5862 5860 5859 5857 5855 5853 5852 5851 5849 5848
5881 5881 5880 5880 5879 5879 5879 5878 5878 5878 5877 5877 5876 5875 5875 5874 5873 5873 5872 5871 5870 5870 5869 5869 5868 5866 5865 5864 5863 5862 5860 5859 5857 5856 5854 5852 5850 5848 5847 5845 5844 5842 5841
5876 5875 5875 5874 5874 5873 5873 5872 5872 5872 5872 5871 5870 5870 5869 5868 5867 5867 5866 5865 5864 5864 5863 5862 5861 5860 5859 5858 5857 5855 5854 5852 5850 5849 5847 5845 5843 5841 5839 5838 5837 5835 5833
5870 5869 5869 5868 5867 5866 5866 5866 5866 5865 5865 5865 5864 5863 5863 5862 5861 5860 5859 5858 5858 5857 5856 5855 5855 5854 5853 5851 5850 5848 5847 5845 5843 5842 5840 5838 5836 5834 5832 5830 5829 5828 5826
5863 5863 5862 5861 5860 5859 5859 5858 5858 5858 5858 5858 5857 5857 5856 5855 5854 5853 5852 5851 5850 5849 5849 5848 5847 5846 5845 5844 5842 5841 5839 5837 5836 5834 5832 5830 5828 5826 5824 5822 5821 5820 5818
5857 5856 5855 5854 5853 5852 5852 5851 5851 5851 5851 5850 5850 5849 5848 5847 5846 5845 5844 5843 5842 5842 5841 5840 5839 5839 5838 5837 5835 5832 5831 5829 5828 5826 5824 5822 5820 5818 5816 5815 5813 5812 5811
5849 5848 5847 5847 5846 5845 5844 5843 5843 5843 5843 5842 5842 5842 5841 5840 5839 5837 5836 5835 5834 5834 5833 5832 5831 5831 5830 5828 5826 5824 5822 5821 5819 5818 5816 5814 5812 5810 5809 5807 5806 5804 5802
5842 5841 5839 5838 5837 5836 5835 5835 5834 5834 5834 5834 5834 5833 5833 5832 5830 5829 5828 5827 5826 5825 5825 5824 5823 5822 5821 5820 5818 5816 5814 5813 5811 5809 5808 5806 5804 5802 5800 5799 5797 5796 5794
5834 5833 5831 5830 5829 5828 5826 5826 5825 5824 5824 5824 5825 5824 5824 5823 5822 5821 5820 5819 5818 5817 5816 5815 5815 5814 5813 5811 5810 5808 5806 5805 5803 5800 5799 5797 5795 5793 5792 5791 5789 5788 5787
5826 5824 5823 5821 5820 5818 5817 5816 5815 5815 5815 5815 5815 5815 5815 5815 5814 5812 5811 5810 5810 5809 5808 5807 5806 5805 5804 5802 5800 5799 5797 5796 5794 5792 5790 5788 5786 5785 5784 5782 5781 5780 5778
5817 5815 5814 5812 5811 5809 5808 5807 5806 5806 5806 5806 5806 5806 5806 5805 5805 5804 5803 5802 5801 5800 5799 5798 5797 5796 5794 5793 5791 5790 5788 5786 5784 5783 5781 5780 5778 5777 5775 5773 5772 5771 5770
5808 5807 5805 5804 5802 5801 5800 5799 5798 5797 5797 5797 5797 5797 5796 5796 5796 5795 5794 5793 5792 5792 5791 5790 5788 5787 5785 5783 5782 5781 5779 5777 5775 5774 5773 5771 5770 5768 5766 5765 5764 5762 5761
5799 5798 5797 5795 5794 5793 5791 5790 5790 5789 5788 5788 5787 5786 5786 5787 5786 5785 5785 5783 5782 5782 5782 5781 5779 5778 5776 5774 5773 5772 5770 5768 5766 5765 5764 5763 5761 5760 5758 5756 5755 5754 5752
5790 5789 5788 5787 5786 5785 5784 5782 5781 5781 5780 5779 5779 5777 5776 5776 5776 5775 5774 5774 5773 5772 5772 5771 5770 5768 5767 5766 5764 5763 5761 5759 5757 5757 5756 5754 5753 5751 5750 5748 5747 5746 5744
5781 5780 5779 5778 5777 5776 5775 5774 5772 5772 5771 5770 5770 5769 5768 5767 5766 5765 5764 5764 5763 5763 5762 5761 5760 5759 5758 5756 5755 5754 5752 5750 5749 5748 5747 5745 5744 5743 5742 5740 5739 5737 5736
5772 5771 5770 5769 5768 5767 5766 5765 5764 5763 5762 5761 5760 5759 5759 5758 5757 5756 5755 5754 5753 5753 5752 5751 5750 5750 5748 5747 5746 5744 5743 5741 5740 5739 5738 5737 5736 5734 5733 5732 5731 5729 5728
5763 5762 5761 5759 5758 5757 5757 5756 5755 5754 5753 5752 5751 5750 5749 5749 5748 5746 5745 5744 5743 5743 5742 5742 5741 5740 5739 5738 5736 5735 5734 5733 5731 5730 5729 5728 5727 5725 5724 5723 5722 5721 5719
5754 5752 5752 5751 5749 5749 5747 5746 5745 5745 5744 5743 5742 5741 5740 5739 5738 5736 5735 5734 5733 5733 5733 5732 5731 5731 5730 5729 5728 5726 5725 5724 5723 5721 5720 5719 5717 5716 5715 5714 5713 5712 5710
5745 5744 5743 5742 5741 5740 5738 5737 5736 5735 5734 5734 5733 5732 5731 5729 5728 5727 5726 5725 5724 5724 5723 5723 5722 5721 5721 5720 5719 5717 5716 5715 5714 5712 5711 5710 5709 5708 5707 5706 5705 5703 5702
5736 5735 5734 5733 5732 5731 5730 5728 5727 5726 5725 5724 5724 5723 5721 5720 5719 5718 5717 5716 5715 5715 5714 5714 5713 5712 5711 5710 5709 5708 5707 5706 5705 5704 5703 5702 5701 5700 5699 5697 5696 5695 5694
5727 5727 5726 5725 5724 5722 5721 5720 5719 5718 5717 5716 5715 5714 5713 5711 5710 5709 5708 5707 5706 5706 5705 5705 5704 5703 5702 5701 5700 5699 5698 5698 5697 5696 5695 5694 5693 5692 5691 5689 5688 5686 5685
5719 5718 5717 5716 5715 5714 5712 5711 5710 5709 5708 5708 5707 5705 5704 5703 5701 5700 5699 5698 5697 5696 5696 5696 5695 5694 5693 5692 5692 5691 5690 5689 5688 5687 5686 5685 5684 5683 5682 5681 5679 5678 5677
5710 5709 5708 5707 5706 5705 5704 5703 5702 5701 5700 5699 5698 5697 5695 5694 5693 5692 5691 5690 5688 5688 5687 5686 5686 5685 5685 5684 5683 5682 5682 5681 5680 5678 5677 5677 5676 5675 5674 5673 5672 5671 5670
5702 5701 5700 5699 5698 5697 5696 5695 5694 5693 5692 5691 5690 5689 5687 5686 5684 5683 5682 5681 5680 5679 5678 5678 5677 5677 5676 5675 5675 5674 5673 5672 5671 5670 5669 5668 5668 5667 5666 5665 5664 5663 5662
5694 5692 5691 5691 5690 5689 5688 5686 5685 5685 5684 5683 5682 5681 5679 5678 5676 5675 5674 5673 5672 5671 5670 5669 5669 5668 5668 5667 5666 5666 5665 5664 5663 5662 5661 5660 5660 5659 5658 5657 5656 5655 5654
5685 5685 5684 5683 5682 5681 5680 5679 5678 5677 5676 5675 5674 5673 5671 5670 5669 5667 5666 5665 5664 5663 5662 5662 5661 5660 5660 5659 5658 5658 5657 5656 5655 5654 5654 5653 5652 5651 5650 5649 5648 5647 5646